La Junta, CO

9:03 AM MST on December 16, 2017 (GMT -0700)
La Junta Municipal

Weather History for KLHX - January, 2013

Change the Weather History Date:

Sunday, January 6, 2013

  Actual Average Record
Temperature  
Mean Temperature 28 °F 31 °F  
Max Temperature 47 °F 44 °F 99 °F (2015)
Min Temperature 9 °F 17 °F -15 °F (1971)
Degree Days  
Heating Degree Days 37 34  
Month to date heating degree days 238 208  
Since 1 July heating degree days 2180 2411  
Cooling Degree Days 0 0  
Month to date cooling degree days 0 0  
Year to date cooling degree days 0 0  
Moisture  
Dew Point 10 °F    
Average Humidity 50    
Maximum Humidity 73    
Minimum Humidity 26    
Precipitation  
Precipitation 0.00 in 0.00 in 0.12 in (1988)
Month to date precipitation 0.00 0.05  
Year to date precipitation 0.00 0.05  
Sea Level Pressure  
Sea Level Pressure 30.21 in    
Wind  
Wind Speed 5 mph (West)    
Max Wind Speed 16 mph    
Max Gust Speed 17 mph    
Visibility 10 miles    
Events      
T = Trace of Precipitation, MM = Missing Value Source: NWS Daily Summary

Daily Weather History Graph

Daily Weather History Graph

Search for Another Location

Airport or City:

Trip Planner

Search our weather history database for the weather conditions in past years. The results will help you decide how hot, cold, wet, or windy it might be!

Date:

Astronomy

Jan. 06, 2013 Rise Set
Actual Time 7:10 AM MST 4:49 PM MST
Civil Twilight 6:41 AM MST 5:19 PM MST
Nautical Twilight 6:08 AM MST 5:51 PM MST
Astronomical Twilight 5:36 AM MST 6:23 PM MST
Moon 1:29 AM MST (1/6) 12:16 PM MST (1/6)
Length of Visible Light 10h 37m
Length of Day
9h 39m
Waning Crescent, 32% of the Moon is Illuminated
Jan 6
Waning Crescent
Jan 11
New
Jan 18
First Quarter
Jan 26
Full
Feb 3
Last Quarter

Hourly Weather History & Observations

Time (MST) Temp. Windchill Dew Point Humidity Pressure Visibility Wind Dir Wind Speed Gust Speed Precip Events Conditions
12:53 AM 18.0 °F 4.8 °F 8.1 °F 65% 30.36 in 10.0 mi West 12.7 mph - N/A   Clear
1:53 AM 17.1 °F 10.0 °F 8.1 °F 68% 30.37 in 10.0 mi WSW 4.6 mph - N/A   Clear
2:53 AM 15.1 °F 4.2 °F 6.1 °F 68% 30.37 in 10.0 mi WNW 8.1 mph - N/A   Clear
3:53 AM 12.9 °F 2.6 °F 5.0 °F 71% 30.36 in 10.0 mi West 6.9 mph - N/A   Clear
4:53 AM 14.0 °F 3.9 °F 6.1 °F 71% 30.36 in 10.0 mi West 6.9 mph - N/A   Clear
5:53 AM 12.0 °F 2.7 °F 5.0 °F 73% 30.38 in 10.0 mi West 5.8 mph - N/A   Clear
6:53 AM 10.0 °F -2.9 °F 3.0 °F 73% 30.38 in 10.0 mi West 9.2 mph - N/A   Clear
7:53 AM 12.0 °F - 5.0 °F 73% 30.37 in 10.0 mi Calm Calm - N/A   Clear
8:53 AM 19.9 °F 9.3 °F 8.1 °F 60% 30.36 in 10.0 mi West 9.2 mph - N/A   Clear
9:53 AM 26.1 °F 19.4 °F 10.0 °F 51% 30.35 in 10.0 mi West 5.8 mph - N/A   Clear
10:53 AM 32.0 °F - 10.9 °F 42% 30.30 in 10.0 mi Calm Calm - N/A   Clear
11:53 AM 36.0 °F 33.3 °F 10.9 °F 36% 30.23 in 10.0 mi SSW 3.5 mph - N/A   Clear
12:53 PM 39.9 °F - 12.0 °F 32% 30.17 in 10.0 mi Calm Calm - N/A   Clear
1:53 PM 45.0 °F 41.2 °F 12.9 °F 27% 30.11 in 10.0 mi ESE 6.9 mph - N/A   Clear
2:53 PM 46.0 °F 42.5 °F 14.0 °F 28% 30.08 in 10.0 mi East 6.9 mph - N/A   Clear
3:53 PM 45.0 °F 41.2 °F 15.1 °F 30% 30.07 in 10.0 mi East 6.9 mph - N/A   Clear
4:53 PM 37.0 °F - 14.0 °F 39% 30.07 in 10.0 mi North - - N/A   Clear
5:53 PM 34.0 °F 29.8 °F 15.1 °F 46% 30.09 in 10.0 mi North 4.6 mph - N/A   Clear
6:53 PM 35.1 °F - 17.1 °F 48% 30.09 in 10.0 mi Calm Calm - N/A   Clear
7:53 PM 34.0 °F - 17.1 °F 50% 30.09 in 10.0 mi Calm Calm - N/A   Clear
8:53 PM 26.1 °F 17.6 °F 10.9 °F 53% 30.07 in 10.0 mi West 8.1 mph - N/A   Clear
9:53 PM 25.0 °F 16.3 °F 9.0 °F 51% 30.05 in 10.0 mi West 8.1 mph - N/A   Clear
10:53 PM 26.1 °F - 9.0 °F 49% 30.02 in 10.0 mi Calm Calm - N/A   Clear
11:53 PM 26.1 °F 21.9 °F 7.0 °F 44% 30.01 in 10.0 mi SW 3.5 mph - N/A   Clear